User: anonymous   Login
Location: Unspecified
(0.0000°N, 0.0000°E)
Time: 10:01:55
(UTC+00:00)
Language:

Tempsat 1 - Orbit

View from above orbital plane
View from above orbital plane
View from above satellite
View from above satellite

Ground track
Ground track

The orbit is defined by the following mean orbital elements,

1 01512U          26145.46782718 +.00000000 +00000-0 +17653-4 0 00009
2 01512  90.0003 212.5905 0068074 313.5785  57.4917 13.33592669    04
Epoch (UTC): 25 May 2026 11:13:40
Eccentricity: 0.0068074
inclination: 90.0003°
perigee height: 1082 km
apogee height: 1184 km
right ascension of ascending node: 212.5905°
argument of perigee: 313.5785°
revolutions per day: 13.33592669
mean anomaly at epoch: 57.4917°

The dashed part of the orbit path shows where the satellite is in the earth's shadow,  

DLR